Content
SEND FEEDBACK

Daily
Averages
Monthly
Summary
Honduras

TEGUCIGALPA, HONDURAS


Home > Central America > Honduras
Elevation: 3260 feet     Latitude: 14 03N     Longitude: 087 13W

WEATHER
 
SELECT A DAY
Number of Records: 58,375;   Date Range: 7/9/96 - 11/22/14
 
SHARE

PRINT THIS DATA

[ ← Previous Day ]
WEATHER ALMANAC - SEPTEMBER 26, 2013
[ Next Day → ]
[ °C ]   °F
Weather ElementAverageHighLow
Temperature74 °F91.4 °F (2:00 pm)64 °F (6:00 am)
Dewpoint64.1 °F68 °F (8:00 am)33.8 °F (7:00 pm)
Humidity74 %100 % (9:00 pm)30 % (7:00 pm)
Barometer28.10 in30.09 in (9:00 pm) (7:00 pm)
Wind Speed4.3 mph12.7 mph (4:00 pm)
Wind Gust19.6 mph (7:00 pm)
Weather ElementAverage
Visibility6.5 mi
Wind DirectionSE (131 °)

Weather ElementTotal
Precipitation---
Cooling Degree Days12.7 (Base 65)
Growing Degree Days27.7 (Base 50)
Averaged from 32 records on September 26, 2013
WEATHER CONDITIONS BREAKOUT
WIND DIRECTION BREAKOUT
WEATHER BY HOUR - SEPTEMBER 26, 2013
[ °C ]   °F
Local TimeTemperatureDewpointHumidityBarometerVisibilityWind DirectionWind SpeedGust SpeedPrecipitationEventsConditions
12:00 AM68.0 °F64.4 °F88 %30.04 in6.2 miCalmScattered Clouds
1:00 AM66.2 °F64.4 °F94 %30.04 in6.2 miSW (220°)2.3 mphScattered Clouds
2:00 AM64.4 °F62.6 °F94 %30.01 in6.2 miSW (230°)3.5 mphScattered Clouds
3:00 AM65.0 °F63.0 °F92 %29.86 in6.0 miCalmHaze
3:00 AM64.4 °F62.6 °F94 %29.98 in6.2 miCalmScattered Clouds
4:00 AM64.4 °F62.6 °F94 %30.01 in6.2 miCalmMostly Cloudy
5:00 AM64.4 °F62.6 °F94 %30.04 in6.2 miCalmScattered Clouds
6:00 AM64.4 °F62.6 °F94 %30.04 in6.2 miCalmScattered Clouds
6:00 AM64.0 °F62.0 °F92 %29.91 in6.0 miCalmMist
7:00 AM69.8 °F66.2 °F88 %30.04 in6.2 miCalmScattered Clouds
8:00 AM75.2 °F68.0 °F78 %30.04 in6.2 miENE (70°)2.3 mphPartly Cloudy
9:00 AM79.0 °F68.0 °F60 %29.86 in9.0 miNorth5.8 mphHaze
9:00 AM78.8 °F68.0 °F69 %30.04 in6.2 miNorth (360°)5.8 mphPartly Cloudy
10:00 AM84.2 °F66.2 °F55 %30.04 in6.2 miNE (50°)6.9 mphPartly Cloudy
11:00 AM86.0 °F64.4 °F48 %30.01 in6.2 miSouth (180°)4.6 mphPartly Cloudy
12:00 PM86.0 °F64.4 °F48 %30.01 in6.2 miSouth (180°)4.6 mphPartly Cloudy
12:00 PM88.0 °F64.0 °F35 %29.75 in11.0 miEast (90°)5.8 mphHaze
1:00 PM86.0 °F62.6 °F45 %29.98 in6.2 miVariable3.5 mphScattered Clouds
2:00 PM91.4 °F68.0 °F46 %29.95 in6.2 miWest (270°)4.6 mphScattered Clouds
3:00 PM64.0 °F29.70 in11.0 miNE (40°)9.2 mphHaze
3:00 PM87.8 °F64.4 °F46 %29.92 in6.2 miNE (40°)9.2 mphScattered Clouds
3:07 PM82.4 °F62.6 °F51 %29.92 in6.2 miENE (70°)6.9 mphThunderstormThunderstorm
4:00 PM78.8 °F66.2 °F65 %29.92 in6.2 miNorth (360°)12.7 mphThunderstormThunderstorm
5:00 PM78.8 °F68.0 °F69 %6.2 miSouth (180°)8.1 mphThunderstormThunderstorm
6:00 PM75.2 °F66.2 °F73 %6.2 miSE (130°)4.6 mphThunderstormThunderstorm
6:00 PM74.0 °F66.0 °F71 %29.85 in9.0 miSE (130°)4.6 mphThunderstormThunderstorm
7:00 PM66.2 °F33.8 °F30 %30.04 in2.5 miESE (110°)8.1 mph19.6 mphRain-ThunderstormRain Showers
8:00 PM68.0 °F66.2 °F94 %30.06 in6.2 miNW (320°)4.6 mphThunderstormThunderstorm
9:00 PM68.0 °F68.0 °F99 %30.00 in6.0 miSW (220°)3.5 mphScattered Clouds
9:00 PM68.0 °F68.0 °F100 %30.09 in6.2 miSW (220°)3.5 mphScattered Clouds
10:00 PM68.0 °F66.2 °F94 %30.09 in6.2 miWSW (240°)6.9 mphMostly Cloudy
11:00 PM68.0 °F66.2 °F94 %30.06 in6.2 miSW (220°)6.9 mphMostly Cloudy
Hourly data recorded from MHTG, located miles away from Tegucigalpa, Honduras







STORIES FROM OUR PARTNERS